Location: Kozielice
(53.1068°N, 14.8224°E)
Time: 15:48:42
(UTC+00:00)

Daily predictions for brighter satellites

Satellite Brightness Start Highest point End
(mag) Time Altitude Azimuth Time Altitude Azimuth Time Altitude Azimuth
Cosmos 2034 Rocket 4.2 19:47:47 10° S 19:53:58 61° E 20:00:14 10° NNE
SJ 16-02 1.9 19:51:45 10° S 19:55:49 39° ESE 19:59:53 10° NE
Cosmos 2278 4.3 19:51:16 10° S 19:56:23 36° ESE 20:01:32 10° NE
Cosmos 1340 2.7 19:52:49 10° SSW 19:56:34 86° WNW 20:00:20 10° NNE
Cosmos 2082 4.3 19:52:42 10° NW 19:58:11 54° WSW 20:03:38 10° S
Cosmos 2263 Rocket 2.2 19:55:50 10° NNW 20:01:28 88° WSW 20:07:03 10° SSE
Cosmos 1743 3.9 20:00:46 10° NNW 20:04:21 41° W 20:07:55 10° SSW
Ariane Rocket 3.8 20:02:33 10° S 20:07:28 50° W 20:12:26 10° NNW
IRAS Rocket 4.5 20:04:17 10° NNE 20:09:55 80° WNW 20:15:33 10° SSW
SPOT 5 3.1 20:07:11 10° SSE 20:12:28 81° ENE 20:17:33 10° NNW
BREEZE-M DEB (TANK) 2.2 20:10:16 10° WSW 20:12:33 36° S 20:14:41 10° ESE
Terra 2.1 20:09:21 10° SSE 20:14:01 60° ENE 20:18:44 10° N
Resurs 01 Rocket 3.3 20:12:29 10° SSW 20:16:22 30° W 20:20:16 10° NNW
Cosmos 1346 Rocket 3.9 20:15:04 10° SSE 20:18:34 29° E 20:22:04 10° NNE
Aureole 1 Rocket 3.0 20:15:41 10° SW 20:18:42 53° WNW 20:21:39 10° NNE
Cosmos 2227 Rocket 4.3 20:14:40 10° NW 20:18:47 21° W 20:22:53 10° SSW
Cosmos 921 Rocket 4.2 20:16:01 10° NW 20:20:16 40° WSW 20:24:28 10° S
Cosmos 1818 4.5 20:19:57 10° NW 20:25:14 45° NNE 20:30:27 10° ESE
Cosmos 1869 Rocket 4.0 20:25:02 10° NNW 20:29:30 62° W 20:33:54 10° S
SL-24 R/B - RUBIN 2 3.7 20:26:17 10° NW 20:30:38 66° SW 20:34:40 13° SSE
Cosmos 1980 Rocket 2.2 20:26:08 10° SSW 20:31:48 89° ESE 20:37:31 10° NNE
Cosmos 2228 Rocket 3.1 20:30:25 10° S 20:34:59 85° ESE 20:39:34 10° NNE
Cosmos 1378 3.0 20:34:51 10° S 20:38:29 71° E 20:42:09 10° NNE
ISS -2.4 20:36:36 10° W 20:39:26 25° SSW 20:41:27 15° SSE
Cosmos 2344 3.5 20:32:48 10° SW 20:40:11 82° SE 20:48:11 10° NE
Cosmos 2322 Rocket 3.2 20:36:17 12° SSE 20:40:30 27° ESE 20:45:09 10° NE
Cosmos 1777 Rocket 4.0 20:35:46 10° SSW 20:40:57 72° ESE 20:46:13 10° NNE
Cosmos 1844 Rocket 3.2 20:35:35 10° NNW 20:41:03 51° NE 20:46:18 11° SE
Spot 2 Rocket 3.9 20:36:08 10° S 20:41:06 60° WSW 20:46:07 10° NNW
Cosmos 2369 4.0 20:35:53 10° SW 20:41:32 73° NW 20:47:14 10° NNE
Cosmos 1354 Rocket 4.2 20:36:56 10° SSW 20:42:14 78° WNW 20:47:35 10° NNE
ATLAS 2AS CENTAUR R/B 3.0 20:37:16 10° SSW 20:45:00 69° SE 20:52:26 10° NE
Cosmos 1092 Rocket 4.2 20:39:31 10° NNW 20:45:42 72° W 20:51:48 10° S
Cosmos 2333 Rocket 4.1 20:43:54 10° ESE 20:45:46 12° E 20:47:39 10° ENE
Okean 1 4.1 20:42:25 10° SSW 20:46:21 53° WNW 20:50:19 10° N
Meteor 2-4 Rocket 3.8 20:41:08 10° S 20:46:52 70° E 20:52:28 10° NNE
Meteor 1-19 Rocket 4.5 20:43:10 10° SSW 20:48:35 69° WNW 20:54:00 10° N
NOSS 3-4 (A) 4.1 20:43:57 10° WSW 20:49:43 59° NNW 20:56:09 10° NE
NOSS 3-4 (C) 4.1 20:43:59 10° WSW 20:49:47 59° NNW 20:56:13 10° NE
Cosmos 1805 3.9 20:46:42 10° N 20:50:27 43° ENE 20:53:18 16° SE
RESURS DK-1 2.3 20:46:24 10° SSW 20:50:31 83° ESE 20:54:40 10° NE
Cosmos 1697 Rocket 4.0 20:45:32 10° WSW 20:50:57 44° NW 20:56:23 10° NNE
SOZ 4.4 20:47:36 10° W 20:51:02 69° S 20:53:08 10° E
USA 267 3.6 20:46:40 10° E 20:53:11 72° NNE 20:59:42 10° WNW
Cosmos 1634 Rocket 4.0 20:50:41 10° S 20:56:53 83° E 21:03:07 10° NNE
ATLAS CENTAUR R/B 2.4 20:52:15 10° NW 20:57:05 52° NE 21:01:44 10° ESE
ARIANE 5 R/B 2.8 20:53:39 13° S 20:57:37 71° WSW 21:02:08 10° NNW
Cosmos 44 Rocket 4.0 20:53:28 10° NW 20:57:53 40° WSW 21:01:28 14° S
Cosmos 1707 Rocket 3.5 20:54:15 10° S 20:58:40 83° ESE 21:03:07 10° NNE
Cosmos 1733 3.4 21:00:13 10° N 21:03:59 59° ENE 21:06:32 19° SSE
Cosmos 1844 4.1 20:58:49 10° NNW 21:04:37 63° NE 21:09:35 14° SE
Cosmos 2219 Rocket 4.1 21:03:07 10° ESE 21:05:22 12° E 21:07:36 10° ENE
Cosmos 1766 4.3 21:01:49 10° N 21:05:28 35° ENE 21:08:07 16° SE
ATLAS 3B R/B 3.1 20:59:55 10° NW 21:07:09 66° SW 21:13:24 16° SSE
CSL-04 DEB 4.4 21:05:34 10° NNE 21:09:32 66° ESE 21:12:49 15° S
Cosmos 1975 4.0 21:06:01 10° NNW 21:09:50 39° W 21:13:33 10° SSW
NOSS 2-1 (E) 3.2 21:08:10 13° SSW 21:10:41 39° SE 21:13:49 10° ENE
USA 81 4.2 21:09:05 10° S 21:14:22 77° W 21:19:41 10° N
Cosmos 1655 Rocket 4.3 21:08:13 10° N 21:14:24 58° ENE 21:19:13 17° SSE
Meteor 1-4 Rocket 2.4 21:13:55 10° NNW 21:17:24 88° WSW 21:19:36 21° S
ERS-1 Rocket 4.2 21:12:50 10° SSW 21:17:27 36° W 21:22:07 10° NNW
NOSS 3-1 (C) 4.2 21:10:46 10° NW 21:17:45 72° NE 21:26:11 10° ESE
CZ-4C R/B 3.3 21:12:41 10° NW 21:19:16 60° NNE 21:27:15 10° ESE
SL-16 R/B 2.2 21:13:58 10° SSW 21:19:33 64° ESE 21:25:11 10° NE
CZ-2C R/B 4.4 21:17:11 10° N 21:21:52 57° WNW 21:26:32 10° SW
Meteor 2-10 4.0 21:18:45 10° NNW 21:24:06 78° ENE 21:27:49 19° SSE
Cosmos 1733 Rocket 3.8 21:19:50 10° NNW 21:24:09 49° W 21:27:44 14° SSW
Cosmos 1782 Rocket 4.3 21:20:40 10° N 21:24:49 41° ENE 21:27:41 18° SE
GENESIS II 4.1 21:22:02 10° SW 21:25:53 71° SE 21:29:49 10° NE
SAR-Lupe-4 3.6 21:26:58 10° NNE 21:30:36 81° WNW 21:33:22 16° SSW
ERS-2 4.1 21:29:05 10° NE 21:31:20 15° E 21:32:29 14° ESE
Geosat 4.4 21:28:35 18° S 21:32:08 53° WSW 21:37:04 10° NW
EP 1 4.3 21:30:09 10° SW 21:33:18 71° SE 21:35:57 10° NE
Meteor 1-15 Rocket 4.3 21:28:10 10° N 21:33:49 71° ENE 21:37:56 19° SSE
SJ 16-02 3.1 21:30:30 10° WSW 21:34:26 32° NW 21:38:25 10° N
Cosmos 1908 Rocket 3.5 21:31:29 10° N 21:35:52 87° E 21:38:37 22° SSE
Cosmos 1356 3.2 21:35:10 24° S 21:37:02 78° ESE 21:40:22 10° NNE
COSMOS 2428 4.4 21:35:55 13° SE 21:38:16 17° E 21:41:41 10° ENE
Cosmos 923 Rocket 4.2 21:33:11 10° NNW 21:38:30 67° WSW 21:42:10 20° S
Cosmos 1862 Rocket 4.0 21:37:31 12° SSW 21:41:31 62° WNW 21:46:00 10° N
Cosmos 1470 3.8 21:37:56 10° N 21:41:32 35° ENE 21:43:46 19° SE
Cosmos 1726 2.1 21:39:31 10° N 21:43:12 75° E 21:45:09 26° SSE
Cosmos 2263 Rocket 4.1 21:40:56 10° WNW 21:44:38 18° W 21:48:18 10° SW
Cosmos 2360 Rocket 2.5 21:40:42 18° S 21:44:39 50° ESE 21:50:06 10° NE
Cosmos 1937 Rocket 4.1 21:42:39 21° SSE 21:45:41 41° ESE 21:50:38 10° NE
Cosmos 2242 Rocket 4.1 21:43:57 22° SSE 21:46:32 47° E 21:50:54 10° NNE
Cosmos 2266 Rocket 4.0 21:40:32 10° N 21:46:51 88° W 21:51:20 20° S
ALOS 2 3.2 21:44:37 19° SE 21:47:29 49° ENE 21:51:44 10° N
Meteor 1-13 Rocket 4.2 21:44:29 17° S 21:48:54 84° ESE 21:54:27 10° NNE
Cosmos 1242 Rocket 4.3 21:47:10 10° N 21:50:07 23° ENE 21:52:19 14° ESE
NOSS 2-1 (C) 2.8 21:47:51 10° SW 21:51:03 79° NW 21:54:26 10° NE
Terra 3.7 21:48:26 10° SW 21:52:09 22° W 21:55:55 10° NW
Cosmos 1441 Rocket 3.7 21:51:04 15° SSW 21:53:58 53° WNW 21:57:37 10° N
Cosmos 1346 Rocket 4.4 21:51:09 10° SW 21:54:48 32° WNW 21:58:28 10° N
USA 215 3.7 21:52:14 10° ENE 21:58:21 40° SE 22:03:42 13° SSW
Cosmos 2112 Rocket 4.1 21:53:46 10° NNW 21:59:06 68° WSW 22:02:27 23° S
ATLAS 5 CENTAUR R/B 4.2 21:35:59 10° WNW 21:59:31 78° NNE 22:04:55 10° ESE
Cosmos 2279 Rocket 4.5 21:53:30 10° SSW 21:59:36 59° WNW 22:05:46 10° N
Cosmos 1680 Rocket 3.8 21:54:54 10° NNW 22:00:08 59° WSW 22:03:26 22° S
Cosmos 2278 Rocket 3.4 21:55:34 10° NNW 22:00:52 38° NE 22:06:08 10° ESE
NOSS 2-1 (D) 3.2 21:58:21 10° WSW 22:01:32 65° NW 22:04:54 10° NE
Cosmos 990 Rocket 4.0 21:57:53 13° SSW 22:02:36 84° WNW 22:07:54 10° NNE
Cosmos 1626 4.3 22:03:15 12° ESE 22:04:41 15° E 22:06:45 10° NE
Cosmos 1842 3.5 22:03:47 27° SSE 22:05:36 53° E 22:09:24 10° NNE
Meteor 1-22 Rocket 4.4 22:00:51 10° NNW 22:06:48 87° ENE 22:10:54 22° SSE
Cosmos 1818 3.9 22:03:38 10° NW 22:08:58 53° SW 22:12:08 23° SSE
ADEOS Rocket 3.2 22:05:31 18° SE 22:09:40 61° ENE 22:15:45 10° N
Spot 4 3.9 22:07:13 24° S 22:10:09 72° WSW 22:14:58 10° NNW
Iridium 4 Rocket 3.4 22:06:08 10° N 22:10:38 68° W 22:13:44 22° SSW
Sich 1 Rocket 4.2 22:09:38 10° N 22:13:55 47° ENE 22:16:32 21° SE
Cosmos 1898 Rocket 3.5 22:11:50 17° SSW 22:15:57 87° ESE 22:21:19 10° NNE
Cosmos 1980 Rocket 4.4 22:11:49 10° W 22:16:33 27° NW 22:21:21 10° NNE
Cosmos 1674 4.3 22:16:06 18° ESE 22:17:33 23° E 22:20:35 10° NE
Cosmos 1900 4.4 22:15:19 20° SSW 22:18:50 62° SE 22:23:55 10° NE
Okean 1-7 3.3 22:17:25 20° SSW 22:20:19 64° WNW 22:24:42 10° N
Cosmos 1758 4.0 22:17:04 10° N 22:20:55 46° ENE 22:23:04 23° SE
Cosmos 2322 Rocket 2.5 22:18:33 10° SW 22:24:09 67° NW 22:29:46 10° NNE
Cosmos 1844 Rocket 3.6 22:19:45 10° NW 22:24:49 36° WSW 22:27:57 20° SSW
Okean 3 3.6 22:25:02 23° SSW 22:27:34 69° WNW 22:31:50 10° N
Cosmos 2322 4.1 22:25:29 23° S 22:28:40 47° ESE 22:34:08 10° NE
Cosmos 2333 Rocket 2.3 22:25:17 22° S 22:28:53 61° ESE 22:34:29 10° NE
H-2A R/B 3.4 22:26:01 10° NNE 22:30:09 85° ESE 22:32:20 27° SSW
SL-08 ROCKET BODY 4.3 22:25:00 10° N 22:30:56 87° E 22:34:42 23° S
Cosmos 1461 2.8 22:27:29 10° NW 22:31:37 73° SW 22:33:55 26° SSE
NOSS 2-2 (C) 4.2 22:27:47 10° NW 22:32:21 75° NE 22:38:47 10° SE
USA 229 DEB 4.0 22:27:43 10° NW 22:34:58 85° NE 22:42:46 10° SE
USA 229 4.0 22:27:49 10° NW 22:35:03 84° NE 22:42:50 10° SE
ASTEX 1 4.2 22:31:06 10° NNE 22:35:45 41° E 22:38:33 22° SSE
ATLAS CENTAUR R/B 2.4 22:31:18 10° NW 22:35:50 39° WSW 22:37:50 26° S
USA 267 3.2 22:29:46 10° SE 22:36:18 67° SSW 22:42:50 10° WNW
ATLAS 2AS CENTAUR R/B 3.8 22:28:50 10° WSW 22:36:22 52° NNW 22:43:33 10° NE
Meteor 1-23 Rocket 4.5 22:34:01 19° SSW 22:38:18 72° WNW 22:44:10 10° N
NOSS 2-2 (E) 4.1 22:39:06 10° NW 22:43:52 84° SW 22:50:00 13° SE
SL-19 R/B 4.1 22:43:03 30° SE 22:44:14 52° ENE 22:47:04 10° N
Nadezhda 2 Rocket 4.4 22:40:42 10° NNW 22:46:54 83° W 22:50:51 23° S
Cosmos 1553 Rocket 4.3 22:43:37 22° SSE 22:47:29 58° E 22:53:35 10° NNE
Cosmos 2219 Rocket 2.2 22:44:47 23° S 22:48:13 65° ESE 22:53:46 10° NE
Cosmos 2221 Rocket 3.9 22:51:05 27° SSE 22:53:17 54° E 22:57:36 10° NNE
Cosmos 494 Rocket 4.0 22:48:14 10° NNW 22:53:24 82° ENE 22:56:50 21° SSE
Cosmos 1048 Rocket 3.9 22:48:36 10° NNW 22:53:49 88° ENE 22:57:09 22° SSE
Cosmos 372 Rocket 4.0 22:51:17 21° SSW 22:54:46 84° WNW 22:59:59 10° NNE
ATLAS 3B R/B 4.5 22:51:56 10° WNW 22:56:44 19° WSW 23:00:39 13° SW
NOSS 3-1 (A) 4.1 22:54:20 10° NW 23:01:32 68° SW 23:08:57 14° SSE
Cosmos 1707 2.8 23:00:36 29° SSW 23:02:27 74° WNW 23:06:20 10° N
Cosmos 1378 Rocket 4.2 23:00:50 25° SSE 23:03:05 46° E 23:07:21 10° NNE
SL-16 R/B 3.8 22:58:57 10° WSW 23:04:04 34° NW 23:09:13 10° NNE
ERS-2 2.5 23:01:28 10° N 23:05:02 56° WNW 23:06:52 25° SW
Cosmos 1125 Rocket 4.4 23:03:17 22° SSE 23:05:57 36° ESE 23:10:40 10° NE
Cosmos 1300 4.0 23:03:09 10° N 23:06:38 33° ENE 23:09:06 16° SE
CZ-4C R/B 3.1 23:01:10 10° NW 23:08:05 57° SW 23:14:17 18° SSE
Okean 2 3.3 23:06:40 30° S 23:08:37 86° E 23:12:44 10° NNE
NOSS 3-1 (C) 4.5 23:01:42 10° NW 23:08:38 45° WSW 23:14:02 21° S
Cosmos 1238 Rocket 2.0 23:08:06 10° NNW 23:11:03 78° W 23:11:57 42° S
USA 290 2.3 23:10:46 39° S 23:11:41 58° ESE 23:14:52 10° NNE
Gblst 52 Del rocket 4.2 23:10:43 10° WSW 23:16:53 68° SSE 23:22:28 10° E
Cosmos 1470 4.3 23:14:11 10° NW 23:17:22 24° W 23:19:01 18° SW
Cosmos 2237 Rocket 3.2 23:14:56 20° SSE 23:18:01 34° ESE 23:23:06 10° NE
KORONAS-FOTON 3.8 23:16:49 31° SSW 23:18:32 78° W 23:22:23 10° N
SL-14 R/B 4.1 23:18:00 23° SE 23:19:50 38° E 23:23:27 10° NNE
NOSS 2-2 (D) 4.2 23:15:06 10° NW 23:19:51 64° SW 23:25:35 14° SSE
Cosmos 1745 Rocket 4.0 23:14:27 10° N 23:20:44 89° ENE 23:25:01 21° S
PSLV R/B 3.6 23:16:51 10° NNE 23:21:15 80° ESE 23:23:41 27° S
COSMOS 2428 2.7 23:17:53 22° SSW 23:21:37 80° ESE 23:27:21 10° NNE
Resurs 1-4 Rocket 4.2 23:18:21 10° NE 23:21:42 17° E 23:25:02 10° SE
Cosmos 2151 Rocket 3.8 23:17:24 10° NNW 23:21:45 59° W 23:23:57 27° SSW
ERBS 4.4 23:23:12 13° ESE 23:23:12 13° ESE 23:24:09 10° E
ALOS 2 4.1 23:22:00 17° SW 23:24:03 24° W 23:27:39 10° NW
Cosmos 1242 Rocket 3.5 23:21:34 10° NNW 23:24:52 34° W 23:26:07 26° SW
Okean 2 Rocket 3.6 23:21:25 10° NNW 23:25:47 49° W 23:28:05 25° SSW
USA 305 3.9 23:26:44 25° SSE 23:27:26 27° SE 23:30:59 10° E
Cosmos 2360 Rocket 3.3 23:23:30 10° WSW 23:28:49 40° NW 23:34:10 10° NNE
Cosmos 1943 Rocket 3.1 23:24:03 10° NNW 23:29:34 47° NE 23:35:02 10° ESE
Cosmos 405 Rocket 2.6 23:28:20 31° S 23:30:00 75° E 23:33:50 10° NNE
Cosmos 1437 Rocket 2.6 23:28:05 10° NNW 23:31:52 74° WSW 23:33:34 30° S
Nimbus 7 Rocket 4.4 23:26:17 10° NNE 23:32:13 87° WNW 23:36:12 22° SSW
Cosmos 1908 3.7 23:29:36 10° NNW 23:33:14 46° W 23:34:48 28° SSW
In-Cosmos 22 4.4 23:29:31 21° SSW 23:33:15 63° WNW 23:38:40 10° N
ADEOS II 4.5 23:33:22 10° ENE 23:35:27 12° E 23:37:31 10° ESE
Cosmos 1867 3.5 23:33:44 20° SW 23:37:37 82° SE 23:43:08 10° NE
Cosmos 2298 Rocket 4.2 23:34:33 24° S 23:37:42 63° ESE 23:42:57 10° NNE
GP-B 3.8 23:34:47 10° N 23:39:06 47° E 23:42:03 19° SSE
Cosmos 1626 2.4 23:37:36 28° SW 23:39:19 57° WNW 23:42:57 10° N
USA 215 3.2 23:35:15 10° ENE 23:41:51 88° SSE 23:48:27 10° WSW
Cosmos 1953 2.4 23:38:47 10° NNW 23:42:47 66° W 23:44:46 28° S
Cosmos 2278 Rocket 2.4 23:39:40 10° NW 23:45:12 55° WSW 23:48:51 21° S
EO 1 Delta rocket 4.4 23:43:25 10° NNE 23:47:58 52° E 23:51:24 19° SSE
Cosmos 1674 3.7 23:50:45 20° SW 23:52:46 36° WNW 23:56:17 10° N
